CW9914 Weather Reports


time (UTC)temp
F
wind
direction
speed
knots
gust
knots
rain 1hr
in
rain 24hr
in
rain mn
in
humidity
%
barometer
mb
20260902221403 61 10 2.6 4.3 0.00 0.00 0.00 95 1021.7
20260902220903 61 8 2.6 4.3 0.00 0.00 0.00 94 1021.6
20260902220404 61 357 1.7 4.3 0.00 0.00 0.00 94 1021.7
20260902215903 61 339 2.6 5.2 0.00 0.00 0.00 94 1021.7
20260902215404 61 331 2.6 5.2 0.00 0.00 0.00 94 1021.7
20260902214903 62 322 2.6 5.2 0.00 0.00 0.00 93 1021.7
20260902214404 62 338 1.7 4.3 0.00 0.00 0.00 93 1021.8
20260902213903 62 344 2.6 5.2 0.00 0.00 0.00 93 1021.8
20260902213404 62 0 2.6 5.2 0.00 0.00 0.00 92 1021.7
20260902212404 63 334 1.7 5.2 0.00 0.00 0.00 91 1022.0
20260902211904 63 345 2.6 7.0 0.00 0.00 0.00 91 1021.7
20260902211404 63 7 3.5 5.2 0.00 0.00 0.00 91 1021.6
20260902210904 63 12 2.6 6.1 0.00 0.00 0.00 91 1021.9
20260902210404 63 337 2.6 5.2 0.00 0.00 0.00 91 1021.7
20260902205904 63 349 2.6 4.3 0.00 0.00 0.00 90 1021.8
20260902205404 64 336 2.6 4.3 0.00 0.00 0.00 89 1021.9
20260902204904 64 71 2.6 6.1 0.00 0.00 0.00 88 1021.6
20260902204404 64 34 2.6 7.8 0.00 0.00 0.00 88 1021.6
20260902203904 65 36 2.6 5.2 0.00 0.00 0.00 88 1021.4
20260902203404 65 35 4.3 7.0 0.00 0.00 0.00 88 1021.5
20260902202904 65 10 4.3 7.8 0.00 0.00 0.00 87 1021.5
20260902202404 65 12 4.3 10.4 0.00 0.00 0.00 87 1021.6
20260902201904 65 16 5.2 10.4 0.00 0.00 0.00 87 1021.7
20260902201404 65 11 6.1 12.2 0.00 0.00 0.00 86 1021.4
20260902200904 66 18 7.0 10.4 0.00 0.00 0.00 85 1021.5
20260902200404 66 20 5.2 10.4 0.00 0.00 0.00 84 1021.4
20260902195404 67 8 6.1 10.4 0.00 0.00 0.00 83 1021.4
20260902194904 67 25 6.1 8.7 0.00 0.00 0.00 82 1021.2
20260902194404 67 8 5.2 8.7 0.00 0.00 0.00 82 1021.3
20260902193404 68 20 6.1 11.3 0.00 0.00 0.00 79 1021.1
20260902192904 68 30 6.1 11.3 0.00 0.00 0.00 78 1021.2
20260902192403 68 30 7.0 12.2 0.00 0.00 0.00 77 1021.1
20260902191904 68 17 7.8 13.9 0.00 0.00 0.00 76 1021.0
20260902191404 69 22 7.0 12.2 0.00 0.00 0.00 74 1021.0
20260902190904 69 23 6.1 12.2 0.00 0.00 0.00 72 1020.8
20260902190404 69 17 8.7 14.8 0.00 0.00 0.00 72 1020.7
20260902185904 70 31 8.7 13.9 0.00 0.00 0.00 71 1020.8
20260902185404 70 17 10.4 13.9 0.00 0.00 0.00 69 1020.8
20260902184904 71 26 8.7 13.9 0.00 0.00 0.00 68 1020.9
20260902184404 71 13 8.7 13.9 0.00 0.00 0.00 67 1020.9
20260902183904 71 19 7.8 13.9 0.00 0.00 0.00 65 1020.7
20260902183404 72 29 9.6 14.8 0.00 0.00 0.00 65 1020.8
20260902181904 73 21 8.7 15.6 0.00 0.00 0.00 60 1021.0
20260902181404 74 14 7.8 14.8 0.00 0.00 0.00 59 1020.9
20260902180904 74 25 12.2 15.6 0.00 0.00 0.00 58 1021.0
20260902175907 75 28 10.4 17.4 0.00 0.00 0.00 55 1020.7
20260902175405 75 27 10.4 15.6 0.00 0.00 0.00 51 1020.7
20260902174904 75 27 10.4 18.2 0.00 0.00 0.00 51 1020.6
20260902174404 76 38 10.4 15.6 0.00 0.00 0.00 54 1020.7
20260902173904 76 26 7.8 13.0 0.00 0.00 0.00 51 1020.6
20260902173404 77 31 7.8 13.0 0.00 0.00 0.00 50 1020.6
20260902172904 77 28 7.8 12.2 0.00 0.00 0.00 48 1020.8
20260902172404 77 28 6.1 13.0 0.00 0.00 0.00 49 1020.9
20260902171404 78 25 4.3 13.0 0.00 0.00 0.00 52 1020.6
20260902170904 79 53 7.8 12.2 0.00 0.00 0.00 50 1020.8
20260902170404 78 45 2.6 8.7 0.00 0.00 0.00 49 1020.6
20260902165904 79 47 6.1 11.3 0.00 0.00 0.00 49 1020.7
20260902165404 79 14 6.1 12.2 0.00 0.00 0.00 45 1020.9
20260902164904 79 24 9.6 12.2 0.00 0.00 0.00 42 1020.8
20260902164404 79 9 7.8 13.0 0.00 0.00 0.00 41 1020.8
20260902163904 79 23 7.0 13.0 0.00 0.00 0.00 42 1020.9
20260902163404 79 10 6.1 10.4 0.00 0.00 0.00 46 1020.7
20260902162904 79 20 7.8 13.0 0.00 0.00 0.00 46 1020.9
20260902161904 79 14 6.1 12.2 0.00 0.00 0.00 45 1020.9
20260902161404 80 37 7.0 12.2 0.00 0.00 0.00 42 1021.1
20260902160904 80 28 7.8 11.3 0.00 0.00 0.00 40 1021.0
20260902160405 80 30 5.2 12.2 0.00 0.00 0.00 38 1021.2
20260902155905 80 21 7.8 11.3 0.00 0.00 0.00 36 1021.0
20260902155405 80 42 6.1 12.2 0.00 0.00 0.00 35 1021.1
20260902154905 80 14 6.1 11.3 0.00 0.00 0.00 37 1020.9
20260902154406 80 21 7.8 13.9 0.00 0.00 0.00 36 1021.2
20260902153911 80 43 4.3 8.7 0.00 0.00 0.00 40 1021.2
20260902152404 79 17 3.5 8.7 0.00 0.00 0.00 42 1021.4
20260902151904 79 8 6.1 10.4 0.00 0.00 0.00 42 1021.3
20260902151404 81 10 7.8 11.3 0.00 0.00 0.00 39 1021.3
20260902150904 80 2 3.5 7.8 0.00 0.00 0.00 38 1021.4
20260902150404 81 2 4.3 7.8 0.00 0.00 0.00 33 1021.6
20260902145404 79 16 4.3 11.3 0.00 0.00 0.00 34 1021.2
20260902144904 79 16 2.6 8.7 0.00 0.00 0.00 37 1021.4
20260902144404 80 32 6.1 8.7 0.00 0.00 0.00 33 1021.5
20260902143904 80 12 2.6 5.2 0.00 0.00 0.00 34 1021.6
20260902142404 78 30 4.3 8.7 0.00 0.00 0.00 34 1021.8
20260902140904 78 17 5.2 10.4 0.00 0.00 0.00 30 1021.9
20260902135904 77 55 4.3 7.8 0.00 0.00 0.00 38 1022.0
20260902135404 76 7 5.2 8.7 0.00 0.00 0.00 40 1022.1
20260902134904 76 6 5.2 8.7 0.00 0.00 0.00 42 1022.1